www.pogodaiklimat.ru

Погода и климат >> Архив погоды >> Китай >> Хэйлунцзян >> Цицикар


ПОГОДА в Цицикаре

  • Прогноз погоды в Цицикаре
  • Монитор погоды в Цицикаре

АРХИВ ПОГОДЫ в Цицикаре

Время (UTC), дата Ветер
(напр.,м/с)
 
Видим.   Явления Облачность Т
(С)
Тd
(С)
f
(%)
Тe
(С)
Тes
(С)
Комфортность P
(гПа)
Po
(гПа)
Тmin
(С)
Tmax
(С)
R
(мм)
R24
(мм)
S
(см)
06 13.09 З 1 30 км {дождь} 9/9 1500 м
[]
+17.1 +10.7 66 +18 +19 1005.9 988.6 +14.8 4
09 13.09 З 1 30 км ясно +21.1 +10.9 52 +23 +23 комфорт 1006.4 989.2
12 13.09 СВ 1 30 км ясно +13.6 +11.5 87 +14 +14 1009.3 991.8
15 13.09 В 1 30 км н/о +12.2 +8.9 80 +12 +12 1011.3 993.5
18 13.09 З 1 30 км н/о +10.1 +9.2 94 +10 +10 1012.8 995.2 +21.4
21 13.09 З 2 30 км н/о +11.0 +7.7 80 +10 +10 1013.8 995.9
00 14.09 З 2 30 км ясно +15.9 +8.6 62 +16 +19 1014.5 996.9
03 14.09 З 3 30 км ясно +21.3 +8.2 43 +22 +31 комфорт 1013.6 996.3
06 14.09 Ю 4 30 км ясно +22.7 +6.5 35 +23 +28 комфорт 1011.6 994.1 +9.6
09 14.09 Ю 4 30 км 3/3 1000 м
[]
+21.7 +6.0 36 +22 +22 комфорт 1010.6 993.4
12 14.09 Ю 5 30 км ясно +19.4 +7.5 46 +20 +20 1010.5 993.1
15 14.09 Ю 5 30 км н/о +17.6 +7.1 50 +17 +17 1008.9 991.5
18 14.09 Ю 5 30 км н/о +16.5 +6.1 50 +16 +16 1006.9 989.7 +23.2
21 14.09 Ю 5 30 км н/о +16.3 +5.9 50 +15 +15 1004.9 987.5
00 15.09 Ю 7 30 км 8/8 1500 м
[]
+17.6 +7.4 51 +17 +17 1004.1 986.9
03 15.09 З 3 30 км ясно +22.0 +8.2 41 +23 +32 комфорт 1004.2 987.1
06 15.09 СЗ 4 30 км 3/3 1000 м
[]
+22.3 +6.5 36 +23 +26 комфорт 1005.4 988.2 +16.0
09 15.09 СЗ 3 30 км 9/9 1500 м
[]
+17.4 +3.7 40 +17 +17 1008.5 991.1
12 15.09 С 4 30 км ясно +11.4 -4.3 33 +10 +10 1012.8 995.2
15 15.09 СЗ 2 30 км н/о +8.0 -3.5 44 +7 +7 1015.7 997.6
18 15.09 ЮЗ 2 30 км н/о +7.3 -1.4 54 +6 +6 1016.8 999.2 +22.6
21 15.09 З 3 30 км н/о +6.3 -2.3 54 +4 +4 1017.4 999.2
00 16.09 З 3 30 км ясно +10.3 -3.4 38 +9 +12 1018.1 1000.2
03 16.09 ЮЗ 4 30 км ясно +15.6 -4.3 25 +15 +22 1017.2 999.5
06 16.09 ЮЗ 5 30 км ясно +18.0 -4.6 21 +18 +21 1014.9 997.2 +6.2
09 16.09 Ю 3 30 км ясно +17.9 -2.9 24 +18 +18 1013.7 996.2
12 16.09 Ю 4 30 км ясно +15.0 -0.7 34 +14 +14 1013.9 996.2
15 16.09 Ю 3 30 км н/о +14.0 +0.3 39 +13 +13 1012.8 995.1
18 16.09 Ю 3 30 км н/о +11.4 +1.4 50 +10 +10 1010.9 993.4 +18.7
21 16.09 Ю 4 30 км н/о +10.8 +3.1 59 +9 +9 1009.0 991.2
00 17.09 ЮЗ 4 30 км 10/10 1500 м
[]
+12.3 +3.8 56 +11 +11 1008.5 990.9
03 17.09 ЮЗ 3 30 км слаб. дождь 10/10 1500 м
[]
+13.6 +6.0 60 +13 +13 1008.7 991.1
06 17.09 З 3 30 км слаб. дождь 10/10 600 м
[]
+10.6 +8.7 88 +9 +9 1010.2 992.4 +10.3 3
09 17.09 З 2 30 км {дождь} 8/8 1500 м
[]
+13.2 +6.3 63 +13 +13 1009.3 991.6
12 17.09 С 7 30 км {дождь} ясно +9.5 +0.7 54 +6 +6 1014.0 996.2
15 17.09 СЗ 3 30 км н/о +6.4 -1.0 59 +4 +4 1017.1 998.9
18 17.09 З 3 30 км н/о +5.3 -0.7 65 +2 +2 1017.9 999.8 +13.9
21 17.09 З 3 30 км н/о +5.2 -0.6 66 +2 +2 1018.5 1000.2
00 18.09 З 4 30 км ясно +8.9 +0.1 54 +6 +8 1019.8 1001.8
03 18.09 С 3 30 км 1/1 1000 м
[]
+13.1 -4.5 29 +12 +20 1018.7 1000.9
06 18.09 СЗ 6 30 км ясно +15.7 -6.6 21 +15 +17 1016.9 999.0 +4.9
09 18.09 СЗ 2 30 км ясно +15.5 -3.4 27 +16 +16 1016.0 998.4
12 18.09 З 1 30 км ясно +9.2 +0.1 53 +9 +9 1017.4 999.4
15 18.09 С 2 30 км н/о +8.1 -1.4 51 +7 +7 1017.9 999.8
18 18.09 штиль 0 30 км н/о +3.8 +1.2 83 +3 +3 1018.7 1000.7 +16.6
21 18.09 штиль 0 30 км н/о +3.9 +3.0 94 +3 +3 1018.9 1000.5
00 19.09 ЮЗ 2 30 км 8/8
[]
+9.8 +1.4 56 +9 +9 1019.6 1001.6
03 19.09 ЮЗ 2 30 км 9/9 1500 м
[]
+14.7 +0.5 38 +15 +16 1018.9 1001.2
06 19.09 ЮЗ 3 30 км 6/6 1500 м
[]
+16.0 +3.1 42 +16 +18 1017.2 999.3 +3.2
09 19.09 ЮЗ 3 30 км ясно +15.5 +3.9 46 +15 +15 1017.0 999.3
12 19.09 Ю 2 21 км ясно +11.0 +4.0 62 +10 +10 1017.3 999.4
15 19.09 ЮЗ 3 30 км н/о +11.2 +4.7 64 +10 +10 1017.0 999.1
18 19.09 ЮЗ 2 30 км н/о +8.8 +6.2 84 +7 +7 1016.4 998.6 +17.1
21 19.09 Ю 4 30 км н/о +10.6 +3.2 60 +8 +8 1015.5 997.6
00 20.09 ЮЗ 4 30 км 8/8 1500 м
[]
+12.3 +5.2 62 +11 +11 1016.0 998.2

 

Местоположение метеостанции Цицикар (Хэйлунцзян, Китай): широта 47.38 долгота 123.91 высота над уровнем моря 148 м.

В архиве по умолчанию представлена погода в Цицикаре за последнюю неделю. Архивные данные за месяц целиком и за предыдущие месяцы, начиная с января 2011 года, Вы можете получить, выбрав интересующий диапазон дат из раскрывающегося списка и нажав кнопку "Ввод!".


*Определитесь, кто Вы:
робот инопланетянин человек

Внимание! Время в таблицах - всемирное. Для получения местного времени необходимо прибавить поправку, которая равна 8 ч.

Смотрите также архив погоды в соседних городах и на ближайших метеорологических станциях:

Погода в Тайлае (Хэйлунцзян, Китай) (115 км)
Погода в Аньда (Хэйлунцзян, Китай) (154 км)
Погода в Кэшане (Хэйлунцзян, Китай) (165 км)
Погода в Сяо Эргу (Внутренняя Монголия, Китай) (203 км)
Погода в Ксиджоу (Внутренняя Монголия, Китай) (214 км)
Погода в Нацзине (Хэйлунцзян, Китай) (222 км)
Погода в Хайлуне (Хэйлунцзян, Китай) (230 км)
Погода в Цянь Горлос (Гирин, Китай) (266 км)
Погода в Харбине (Хэйлунцзян, Китай) (283 км)
Погода в Аршане (Внутренняя Монголия, Китай) (301 км)

Пояснения к столбцам:

Ветер - указаны скорость ветра в м/с - средняя за 10 мин, порывы в срок и между сроками (в фигурных скобках) и направление, откуда дует ветер: С - северный, СВ - северо-восточный, В - восточный, ЮВ - юго-восточный, Ю - южный, ЮЗ - юго-западный, З - западный, СЗ - северо-западный.
Видимость - горизонтальная дальность видимости в метрах или километрах. При видимости от 1 до 10 км при отсутствии осадков обычно наблюдается дымка, при ухудшении видимости до 1 км и менее - туман. В сухую погоду видимость может ухудшаться дымом, пылью или мглою.
Явления - указаны атмосферные явления, наблюдавшиеся в срок или в последний час перед сроком; фигурными скобками обозначены явления, наблюдавшиеся между сроками (за 1-3 часа до срока); квадратными скобками обозначены град или гололедные отложения с указанием их диаметра в мм.
Облачность - указаны через наклонную черту общая и нижняя облачность в баллах и высота нижней границы облаков в метрах; квадратными скобками обозначены формы облаков: Ci - перистые, Cs - перисто-слоистые, Cc - перисто-кучевые, Ac - высококучевые, As - высокослоистые, Sc - слоисто-кучевые, Ns - слоисто-дождевые, Cu - кучевые, Cb - кучево-дождевые. Подробнее классификацию облаков см. в Атласе облаков (PDF).
T - Температура воздуха - температура, измеренная на высоте 2 м над землей.
Td - Температура точки росы - температура, при понижении до которой содержащийся в воздухе водяной пар достигнет насыщения.
f - Относительная влажность воздуха - влажноcть воздуха, измеренная на высоте 2 м над землей.
Te - Эффективная температура - температура, которую ощущает одетый по сезону человек в тени. Характеристика душности погоды. При расчете учитывается влияние влажности воздуха и скорости ветра на теплоощущения человека.
Tes - Эффективная температура на солнце - температура, которую ощущает человек, с поправкой на солнечный нагрев. Характеристика знойности погоды. Зависит от высоты солнца над горизонтом, облачности и скорости ветра. Ночью, в пасмурную погоду, а также при ветре 12 м/с и более поправка равна нулю.
P - Атмосферное давление - приведенное к уровню моря атмосферное давление.
Po - Атмосферное давление - измеренное на уровне метеостанции атмосферное давление.
Tmin - Минимальная температура - минимум температуры воздуха на высоте 2 м над землей.
Tmax - Максимальная температура - максимум температуры воздуха на высоте 2 м над землей.
R - Количество осадков - Количество выпавших осадков за период времени, мм. При наведении курсора мыши на число - период времени, за который выпало указанное количество осадков.
R24 - Количество осадков - Количество выпавших осадков за 24 часа, мм.
S - Снежный покров - Высота снежного покрова, см. При наведении курсора мыши на число - состояние снежного покрова и степень покрытия местности в баллах.